User: anonymous   Login
Location: Unspecified
(0.0000°N, 0.0000°E)
Time: 01:09:39
(UTC+00:00)
Language:

Galileo 6 - Orbit

View from above orbital plane
View from above orbital plane
View from above satellite
View from above satellite

Ground track
Ground track

The orbit data is extracted from the following two-line orbital elements,

1 40129U 14050B   17293.91673995 -.00000103 +00000-0 +00000-0 0  9992
2 40129 050.4248 039.1764 1633831 068.8349 307.7661 01.85520657021837
Epoch (UTC): 20 October 2017 22:00:06
Eccentricity: 0.1633831
inclination: 50.4248°
perigee height: 17028 km
apogee height: 26170 km
right ascension of ascending node: 39.1764°
argument of perigee: 68.8349°
revolutions per day: 1.85520657
mean anomaly at epoch: 307.7661°
orbit number at epoch: 2183

The dashed part of the orbit path shows where the satellite is in the earth's shadow,  

DLR